Location: Chiroubles
(46.1812°N, 4.6660°E)
Time: 15:53:22
(UTC+00:00)

Transit 4A - Pass Details

Date: 02 December 2020
Orbit: 864 x 980 km, 66.8° (Epoch: 26 January)

Event Time Altitude Azimuth Distance (km) Brightness Sun altitude
Rises 13:44:52 0° 328° (NNW) 3,690 10.8 15.3°
Reaches altitude 10° 13:47:57 10° 341° (NNW) 2,733 10.0 15.0°
Maximum altitude 13:53:12 26° 37° (NE) 1,810 9.0 14.5°
Drops below altitude 10° 13:58:21 10° 92° (E) 2,679 10.0 14.0°
Sets 14:01:19 0° 105° (ESE) 3,603 10.8 13.7°
